Location: Trout Lake
(45.9980°N, 121.5270°W)
Time: 18:19:07
(UTC-08:00)

Cosmos 2279 Rocket - Pass Details

Date: 06 December 2023
Orbit: 963 x 978 km, 82.9° (Epoch: 22 February)

Event Time Altitude Azimuth Distance (km) Brightness Sun altitude
Rises 16:58:24 0° 350° (N) 3,684 6.9 -6.5°
Reaches altitude 10° 17:00:55 10° 349° (N) 2,730 6.2 -6.9°
Maximum altitude 17:07:10 79° 265° (W) 995 4.2 -7.9°
Drops below altitude 10° 17:13:21 10° 179° (S) 2,701 6.6 -8.8°
Sets 17:15:50 0° 178° (S) 3,642 7.3 -9.2°
